Location: ????????
(37.6846°N, 24.0673°E)
Time: 14:47:43
(UTC+00:00)

SL-16 R/B - Pass Details

Date: 14 July 2020
Orbit: 842 x 846 km, 71.0° (Epoch: 04 August)

Event Time Altitude Azimuth Distance (km) Brightness Sun altitude
Rises 02:06:27 0° 341° (NNW) 3,413 5.6 -11.8°
Reaches altitude 10° 02:08:57 10° 344° (NNW) 2,474 4.9 -11.5°
Maximum altitude 02:14:35 62° 66° (ENE) 946 2.8 -10.6°
Drops below altitude 10° 02:20:10 10° 147° (SSE) 2,458 4.6 -9.7°
Sets 02:22:38 0° 150° (SSE) 3,389 5.3 -9.3°
